Williamina

operational
NORAD ID: 55048 Int'l Des: 2023-001 Owner: URUGUS Country: UY Constellation: satellogic
LEOCIRCULARRETROGRADESSO

About Williamina

Description loading...

Live Position

Loading 3D Globe...

Upcoming Passes

Altitude History

Altitude vs Time

uPlot chart will show altitude changes over time

Two-Line Element Set

1 55048U 23001AR 26063.19002334 .00021300 00000-0 68358-3 0 9996
2 55048 97.2007 118.6880 0013659 114.8778 245.3886 15.32241768176314
Epoch: Mar 4, 2026 • Age: 17 hours

Current Status

Altitude 504.9 km
Velocity 7.61 km/s
Sub-Earth Point -78.75°S, 152.47°W
Launch Date Jan 3, 2023
Age 3.1 years
Type earth observation

Technical Details

Classification Payload
Mass 41.50 kg
Dry Mass 38.50 kg
Total Mass 41.50 kg
Length 0.81 m
Diameter 0.51 m
Span 0.81 m
Shape Box
Manufacturer URUGUS
Bus Type Newsat V
Phase Status In Orbit
Owner/State URUGUS/UY

Large Constellations

Loading constellations...